Wind_Speed
15 16 16 17 18 18 18 18 19 18 18 18 17 18 20 21 23 24 31 29 24 21 22 13 12 10 17 12 16 14 0 5 6 6 7 14 8 40 17 17 8 2 10 10 13
16 16 17 18 19 19 18 18 17 19 19 19 19 19 21 24 28 33 29 26 27 22 23 27 20 10 10 12 9 8 7 9 9 5 5 8 7 26 27 20 19 20 8 18 16
16 17 19 20 20 20 20 20 19 18 18 19 19 19 21 23 27 12 11 7 8 23 28 24 23 18 13 21 14 7 14 13 17 19 20 17 18 16 23 16 19 7 21 25 19
16 17 19 19 19 19 20 21 22 23 22 19 20 21 21 18 7 9 5 7 6 8 30 32 21 10 7 11 22 14 20 22 23 27 24 17 26 21 23 28 28 30 29 27 19
19 19 20 22 22 22 21 21 21 22 24 24 24 23 23 11 24 12 14 8 3 12 28 29 25 18 7 7 13 20 19 23 25 28 32 31 27 25 33 36 34 33 31 25 29
19 19 20 21 21 21 21 23 24 24 24 24 24 22 11 13 15 12 21 25 17 13 13 29 12 20 7 6 10 5 9 19 28 30 32 22 26 30 35 37 39 35 36 38 38
18 19 21 21 21 20 21 23 24 21 22 24 20 19 17 30 24 22 22 22 19 13 16 24 25 13 10 4 24 21 10 14 22 18 19 26 26 28 34 38 34 35 38 39 39
25 26 28 29 28 25 23 21 15 15 16 20 18 16 14 34 19 16 11 24 23 17 14 13 14 11 21 11 10 3 4 17 21 18 15 12 35 20 26 28 33 37 40 43 45
27 27 27 27 26 26 22 22 17 15 14 16 17 11 16 11 12 9 13 16 21 14 10 12 10 14 8 3 1 7 17 20 26 6 4 11 39 15 29 31 27 28 34 38 46
27 26 28 28 25 20 17 22 20 10 19 15 7 10 11 16 9 21 11 1 7 5 12 10 7 6 4 6 18 9 19 19 16 6 13 18 36 21 29 30 33 37 42 40 43
27 27 26 21 17 11 15 23 29 3 26 13 29 29 40 46 46 39 10 16 14 9 6 6 4 18 27 16 8 10 11 10 5 10 11 22 24 21 22 24 20 27 32 39 43
26 25 24 15 10 9 15 20 23 21 16 28 23 30 36 38 39 50 26 12 5 7 5 4 19 12 9 6 10 14 16 19 6 9 15 18 28 24 23 23 28 33 34 36 41
24 23 22 15 7 9 11 19 20 20 5 16 21 21 28 15 33 39 29 23 11 9 6 11 6 8 15 12 16 16 19 12 8 12 22 9 19 8 15 14 21 27 36 33 29
23 21 17 17 2 13 15 20 19 18 2 5 9 8 19 5 4 20 24 23 9 11 9 10 11 14 14 16 18 19 12 13 16 13 13 8 19 22 14 22 16 20 28 33 37
23 19 13 9 10 13 20 19 19 4 4 13 11 12 18 16 22 12 17 25 23 20 7 11 9 4 14 17 15 19 10 16 13 8 15 16 6 25 10 16 17 15 30 31 32
23 16 10 7 11 15 17 20 8 5 3 9 9 17 14 17 17 5 9 24 15 19 17 14 17 14 12 12 11 6 9 15 12 2 8 14 11 9 14 15 8 9 21 31 33
24 15 9 10 13 17 18 14 5 4 10 10 14 18 8 8 12 10 6 2 1 5 6 7 13 11 13 12 10 4 1 3 2 5 16 12 10 21 9 8 15 16 23 34 32
25 15 9 11 11 15 17 5 7 4 5 12 14 22 6 7 6 13 10 7 5 6 7 5 5 6 2 1 7 7 9 5 7 4 4 12 9 7 16 20 37 34 34 25 16
28 9 7 7 9 10 8 5 4 0 10 7 16 9 8 10 3 8 6 3 6 9 5 5 3 6 9 6 4 4 10 5 6 15 1 5 8 9 19 24 21 20 12 16 20
23 10 5 5 6 8 4 2 2 7 10 12 3 4 9 10 7 6 5 2 7 5 5 4 4 4 6 7 4 7 5 5 3 7 6 5 6 8 7 11 12 12 11 21 25
10 6 6 1 6 2 2 5 8 19 14 6 2 4 14 9 7 8 3 4 4 4 5 3 2 4 4 4 6 3 1 3 3 4 8 3 6 11 11 13 18 8 21 32 32
11 2 3 4 3 2 1 8 16 14 19 4 5 4 5 7 4 4 1 3 10 6 5 2 1 3 8 11 12 4 6 5 3 6 5 2 12 17 8 12 12 14 25 30 34
18 7 4 10 3 4 6 9 10 13 16 7 4 4 2 3 5 6 3 7 9 1 2 3 2 4 9 2 0 4 3 2 4 5 16 8 7 12 3 12 6 18 25 30 35
8 4 6 6 14 1 6 5 9 14 15 17 11 4 7 5 4 6 10 5 10 6 7 3 3 5 5 5 7 6 9 6 1 3 11 16 15 25 16 13 3 18 28 32 36
6 2 5 4 8 9 7 8 16 10 4 12 4 9 1 5 4 3 7 10 1 10 4 3 5 6 12 16 16 14 15 10 9 8 4 6 14 17 14 11 14 26 30 31 32
8 6 8 14 13 6 5 3 12 15 11 8 8 17 9 5 9 13 6 4 8 8 8 8 4 4 16 18 18 18 14 14 13 13 11 18 21 18 14 3 14 27 32 29 31
13 7 8 8 5 5 3 14 14 18 9 17 14 14 9 11 15 24 29 27 14 9 8 8 4 2 7 14 8 6 13 11 5 8 4 7 6 14 6 8 5 21 30 31 32
Wind_Direction
343 340 339 336 334 332 329 322 318 313 307 304 305 305 302 298 284 275 264 264 263 250 242 230 226 226 215 224 202 199 171 232 237 213 248 75 59 277 310 332 315 333 144 174 329
357 353 352 350 347 344 338 334 327 320 317 310 303 300 298 299 294 280 275 267 261 249 245 232 230 205 206 231 219 187 189 229 230 266 296 335 141 256 298 304 307 297 256 331 323
358 357 355 353 349 344 341 338 335 332 326 322 314 306 299 303 308 287 130 121 265 231 231 231 226 224 227 228 214 220 228 212 251 266 288 284 282 247 283 282 278 279 310 310 309
0 358 354 350 347 343 339 336 333 331 327 321 317 313 305 302 269 162 141 78 44 264 213 219 217 206 203 216 233 258 247 239 249 262 272 263 273 275 260 268 279 284 292 294 292
5 0 356 352 347 341 336 331 326 322 319 318 318 312 306 277 253 236 255 308 322 315 214 208 210 204 196 212 238 253 255 253 253 253 256 264 265 264 275 278 281 286 287 283 297
359 355 353 347 339 336 331 329 324 318 312 310 312 308 286 270 309 306 277 264 255 256 239 206 215 220 264 225 220 271 281 262 254 254 259 260 267 268 270 277 282 285 283 291 294
357 355 352 347 341 333 328 326 323 318 311 303 306 300 277 265 306 297 271 261 228 240 232 221 216 210 230 280 256 263 285 282 261 252 253 260 261 252 260 269 272 276 283 285 285
355 352 349 345 341 337 338 348 353 338 301 300 303 299 271 308 304 286 273 244 236 245 242 227 223 249 253 272 292 262 248 247 248 244 248 269 262 257 262 262 259 268 275 276 274
349 345 346 348 351 345 356 1 348 327 318 310 302 308 274 309 292 331 300 267 229 233 248 247 243 239 226 177 274 207 237 234 250 222 228 212 263 255 255 256 264 269 273 272 275
345 343 350 353 352 345 5 15 18 42 2 341 337 319 289 303 301 319 295 357 191 245 259 250 248 206 181 178 215 211 219 233 254 210 216 235 261 257 264 268 269 271 270 272 271
344 345 347 347 351 353 358 8 4 316 324 299 287 271 275 287 278 284 288 326 264 221 189 225 193 220 217 225 275 269 262 253 244 199 218 241 262 258 251 253 258 264 269 264 265
342 341 341 345 357 351 0 3 354 330 310 321 307 297 281 275 272 281 272 292 274 240 184 222 232 247 274 269 229 245 265 264 301 276 216 243 251 263 265 262 258 261 263 261 264
338 339 339 350 21 353 354 344 339 332 308 336 331 330 321 295 238 254 264 274 262 242 216 216 227 246 246 252 248 242 234 261 265 296 292 300 281 247 261 257 258 266 272 268 273
335 338 343 343 9 356 343 343 338 330 16 275 328 332 351 306 256 238 257 258 248 236 222 254 245 248 261 234 234 249 251 241 248 261 266 217 280 259 262 267 262 247 257 271 275
334 335 341 329 344 344 339 346 327 352 7 343 306 322 342 14 350 347 322 237 232 240 187 226 281 263 228 242 234 250 255 231 252 238 248 248 273 267 208 250 252 253 256 259 277
336 334 332 327 326 340 346 334 334 46 314 316 319 334 358 2 359 344 336 357 336 220 222 232 225 247 250 260 259 290 231 242 260 224 254 228 220 275 237 240 245 241 270 274 271
340 331 309 307 326 353 348 336 40 80 331 342 326 329 321 337 349 4 352 103 286 5 310 280 246 228 236 255 264 241 143 233 230 197 234 183 218 240 270 249 242 249 251 262 271
346 321 284 311 340 354 340 47 64 3 286 312 320 316 339 358 346 337 355 353 4 224 234 213 258 192 20 40 227 187 171 183 193 200 278 240 241 240 236 257 257 255 260 268 248
346 323 315 303 340 352 349 44 209 232 299 298 331 337 332 335 300 353 350 305 10 26 15 7 228 341 324 318 111 318 216 194 276 277 301 233 268 275 258 266 262 252 208 207 181
347 352 0 322 340 343 62 275 254 279 310 322 19 255 321 319 336 345 320 342 357 355 35 332 304 256 309 348 246 191 258 163 215 217 240 255 252 236 252 284 277 251 174 168 161
8 352 3 275 306 336 131 237 292 324 330 302 260 279 322 322 317 319 321 293 322 326 358 348 208 285 338 227 229 351 226 198 172 195 219 299 255 244 250 267 279 198 167 158 160
356 2 1 317 341 26 316 295 322 315 334 297 292 294 331 330 297 290 294 248 307 345 318 314 266 275 250 248 262 244 253 172 205 250 249 210 265 260 271 282 269 163 157 157 161
342 312 37 343 50 311 299 319 304 329 334 307 282 320 251 321 325 303 315 276 305 254 346 337 312 308 310 268 209 223 111 6 270 231 245 216 257 263 340 328 326 147 151 151 154
344 348 335 353 351 291 317 310 321 315 311 331 303 316 332 310 239 277 299 301 334 183 331 338 217 226 242 305 332 282 290 305 352 269 245 237 264 259 280 305 113 142 147 147 151
0 319 17 307 325 322 306 288 322 333 317 308 294 325 321 301 294 278 321 328 70 136 158 181 235 251 270 269 270 252 263 269 254 256 258 287 271 290 274 270 185 158 145 144 148
360 348 322 293 291 300 309 322 315 323 327 308 304 303 292 241 266 284 253 252 269 205 178 185 243 259 290 275 247 239 231 237 241 263 260 264 278 269 340 210 147 159 149 149 154
346 318 306 272 295 307 263 325 309 325 305 300 304 314 299 280 290 288 279 252 229 223 208 179 211 261 274 315 188 227 236 237 197 190 198 253 254 309 38 359 345 156 152 155 159
Height
1529 1527 1524 1522 1520 1518 1516 1514 1511 1509 1507 1505 1503 1500 1498 1494 1492 1492 1488 1492 1495 1498 1499 1499 1499 1501 1504 1503 1504 1504 1514 1517 1505 1495 1485 1483 1492 1480 1487 1483 1484 1482 1482 1484 1483
1529 1526 1524 1521 1519 1516 1514 1511 1509 1506 1503 1502 1500 1496 1493 1488 1485 1480 1483 1484 1486 1490 1491 1493 1495 1498 1499 1498 1501 1497 1505 1503 1489 1487 1484 1480 1489 1491 1486 1487 1480 1478 1477 1478 1478
1528 1525 1523 1520 1518 1515 1512 1509 1507 1504 1501 1498 1496 1492 1490 1485 1482 1473 1473 1475 1477 1482 1485 1490 1493 1495 1496 1495 1493 1488 1485 1486 1483 1485 1485 1482 1483 1485 1484 1482 1480 1477 1475 1475 1476
1527 1524 1522 1519 1516 1513 1510 1506 1502 1499 1497 1496 1494 1489 1486 1486 1488 1471 1471 1471 1472 1476 1478 1481 1486 1489 1489 1488 1487 1488 1478 1481 1482 1481 1482 1478 1479 1477 1480 1476 1477 1474 1472 1472 1471
1526 1523 1520 1517 1513 1510 1507 1504 1501 1498 1494 1490 1487 1487 1485 1482 1472 1472 1469 1468 1470 1473 1470 1474 1479 1480 1483 1482 1484 1477 1474 1480 1480 1479 1476 1476 1473 1472 1465 1467 1469 1467 1467 1466 1465
1525 1522 1519 1515 1511 1508 1504 1500 1497 1494 1492 1489 1487 1484 1484 1480 1466 1466 1465 1465 1469 1469 1469 1471 1474 1477 1478 1477 1479 1470 1474 1474 1475 1473 1472 1473 1465 1466 1461 1462 1458 1460 1460 1459 1458
1525 1522 1518 1514 1510 1505 1501 1497 1493 1491 1488 1485 1485 1481 1476 1467 1463 1461 1461 1462 1463 1465 1466 1470 1472 1474 1473 1474 1472 1472 1476 1471 1465 1468 1467 1470 1457 1453 1458 1457 1456 1455 1454 1453 1453
1522 1518 1514 1510 1505 1501 1498 1494 1490 1487 1484 1481 1479 1477 1468 1461 1457 1454 1455 1455 1458 1461 1463 1464 1468 1470 1471 1469 1467 1471 1473 1472 1453 1463 1464 1472 1438 1446 1452 1452 1448 1448 1448 1446 1444
1521 1517 1513 1508 1503 1499 1496 1493 1489 1485 1483 1481 1479 1476 1466 1457 1455 1455 1455 1451 1454 1457 1459 1462 1465 1466 1468 1471 1477 1472 1468 1464 1452 1458 1462 1463 1424 1445 1448 1447 1444 1442 1440 1438 1436
1520 1516 1510 1505 1502 1499 1497 1493 1488 1485 1483 1481 1479 1481 1465 1458 1455 1452 1452 1450 1451 1454 1455 1458 1460 1460 1464 1470 1465 1467 1461 1449 1453 1456 1456 1457 1423 1439 1441 1441 1437 1435 1432 1431 1428
1518 1513 1508 1504 1501 1499 1496 1491 1488 1485 1481 1483 1479 1473 1465 1448 1453 1449 1452 1454 1452 1452 1456 1455 1461 1450 1437 1454 1456 1452 1454 1452 1448 1448 1453 1442 1434 1432 1432 1431 1429 1426 1423 1419 1417
1516 1511 1507 1503 1500 1498 1495 1491 1490 1490 1474 1476 1469 1464 1454 1450 1449 1438 1449 1454 1451 1452 1448 1455 1446 1444 1450 1453 1454 1456 1456 1452 1452 1445 1444 1442 1431 1424 1422 1421 1422 1418 1415 1412 1411
1514 1509 1504 1501 1498 1496 1493 1491 1488 1485 1480 1469 1463 1458 1448 1442 1440 1438 1445 1447 1447 1447 1447 1451 1446 1449 1451 1452 1452 1449 1453 1455 1457 1448 1437 1445 1431 1431 1413 1411 1413 1411 1407 1405 1402
1512 1507 1503 1498 1498 1494 1491 1487 1484 1482 1483 1468 1460 1453 1448 1443 1440 1435 1436 1445 1442 1443 1444 1444 1442 1445 1446 1447 1448 1450 1446 1447 1451 1456 1458 1443 1446 1422 1409 1403 1404 1402 1401 1396 1394
1510 1505 1502 1498 1496 1492 1489 1484 1481 1479 1495 1465 1460 1454 1449 1448 1441 1436 1437 1433 1434 1436 1440 1439 1438 1442 1444 1441 1440 1440 1440 1442 1444 1449 1453 1446 1458 1382 1403 1401 1396 1392 1389 1388 1388
1507 1504 1500 1499 1494 1491 1485 1482 1479 1489 1499 1468 1462 1455 1448 1444 1441 1437 1435 1429 1429 1427 1429 1432 1435 1435 1434 1434 1434 1435 1436 1438 1442 1450 1458 1434 1443 1401 1400 1393 1388 1381 1381 1382 1382
1504 1502 1499 1497 1494 1490 1485 1481 1491 1500 1479 1472 1469 1459 1451 1446 1440 1439 1434 1437 1442 1444 1438 1431 1429 1426 1427 1432 1430 1434 1442 1459 1464 1461 1433 1420 1431 1396 1384 1379 1379 1378 1377 1375 1377
1501 1498 1497 1496 1493 1490 1486 1485 1504 1488 1487 1478 1471 1461 1454 1453 1444 1439 1437 1438 1428 1430 1433 1434 1438 1423 1421 1427 1430 1432 1440 1452 1455 1454 1434 1418 1417 1399 1374 1373 1369 1371 1370 1372 1373
1497 1494 1494 1494 1493 1491 1489 1501 1499 1493 1482 1478 1470 1463 1459 1453 1452 1445 1441 1441 1436 1435 1438 1436 1428 1422 1421 1423 1427 1428 1432 1426 1437 1424 1436 1416 1394 1378 1367 1363 1361 1364 1367 1368 1369
1494 1492 1492 1492 1493 1492 1493 1495 1488 1483 1478 1475 1484 1475 1468 1462 1453 1449 1443 1439 1437 1437 1436 1436 1440 1424 1422 1423 1420 1423 1421 1433 1436 1443 1444 1416 1403 1392 1367 1362 1359 1359 1362 1366 1368
1495 1493 1492 1493 1492 1492 1503 1494 1483 1479 1476 1473 1473 1469 1463 1458 1454 1447 1447 1442 1438 1438 1437 1438 1439 1431 1426 1423 1423 1425 1421 1420 1423 1425 1423 1427 1406 1365 1366 1358 1355 1353 1354 1360 1366
1497 1495 1493 1493 1494 1494 1496 1487 1482 1476 1472 1469 1465 1462 1461 1458 1455 1448 1448 1445 1439 1439 1441 1441 1443 1442 1427 1418 1415 1420 1423 1427 1433 1425 1410 1410 1390 1356 1356 1354 1346 1347 1352 1359 1366
1500 1496 1494 1494 1504 1500 1491 1486 1481 1477 1472 1466 1464 1461 1459 1459 1458 1449 1444 1440 1440 1441 1440 1441 1447 1446 1429 1414 1416 1421 1418 1421 1419 1415 1408 1408 1390 1347 1355 1348 1343 1345 1354 1360 1365
1504 1503 1497 1494 1496 1496 1492 1488 1482 1477 1471 1466 1462 1458 1458 1456 1453 1448 1444 1436 1435 1437 1438 1441 1445 1444 1448 1422 1424 1422 1419 1418 1420 1424 1402 1392 1383 1357 1357 1353 1354 1349 1353 1359 1365
1508 1506 1504 1503 1496 1494 1492 1484 1482 1476 1472 1467 1460 1458 1459 1455 1449 1443 1440 1438 1436 1436 1440 1444 1442 1436 1430 1424 1421 1416 1414 1414 1415 1413 1417 1391 1382 1367 1357 1355 1352 1350 1355 1361 1367
1511 1511 1505 1500 1495 1493 1488 1484 1481 1477 1473 1468 1464 1455 1451 1451 1445 1440 1439 1439 1439 1436 1435 1437 1438 1429 1423 1412 1408 1408 1403 1404 1403 1405 1406 1400 1385 1369 1356 1346 1348 1351 1353 1361 1367
1512 1510 1507 1498 1493 1491 1489 1485 1480 1474 1468 1464 1459 1452 1446 1440 1436 1432 1429 1424 1426 1427 1429 1431 1431 1425 1420 1410 1396 1406 1396 1393 1392 1391 1391 1393 1377 1365 1361 1360 1361 1353 1353 1359 1366